Temperature
19 20 20 20 17 14 17 17 17 18 18 19 19 19 17 17 17 18 21 20 20 19 18 17 16 14 14 13 12 12 11 11 10 10 9 9 9 9 9 9 8 8 8 8 8 8 9 9 9
19 19 20 19 15 15 16 17 17 17 18 19 20 19 19 19 20 20 20 20 20 19 18 17 16 15 14 13 12 12 11 11 10 10 9 9 9 9 9 9 9 8 8 8 9 9 9 9 10
19 19 19 15 15 15 18 18 18 18 19 19 19 19 19 20 20 20 20 20 20 19 18 17 16 15 14 13 12 12 11 11 10 10 9 9 9 9 8 9 8 8 9 9 9 9 9 9 10
19 19 19 15 17 16 17 18 17 18 19 19 19 19 19 20 20 20 20 20 20 19 18 17 16 15 14 13 12 12 12 11 10 10 9 9 9 8 8 8 9 9 9 9 9 9 9 9 10
19 19 16 15 17 17 16 17 17 17 18 18 18 18 19 21 21 20 20 20 20 19 18 17 16 14 13 13 12 12 11 11 11 10 10 9 9 9 9 9 9 9 9 9 9 9 9 9 9
20 17 15 15 16 16 16 18 17 17 17 18 18 17 20 21 21 20 20 19 19 19 18 17 15 14 13 12 12 12 11 11 10 10 10 9 9 9 9 9 9 9 9 9 9 9 9 9 9
19 14 15 16 16 16 17 18 18 18 18 19 19 17 20 20 20 20 19 19 18 18 17 17 15 14 13 12 12 11 11 11 10 10 10 9 9 9 9 9 9 9 9 9 9 9 9 9 9
19 14 16 15 16 16 18 19 19 19 19 20 19 18 20 20 20 20 19 18 18 17 17 16 15 14 13 12 11 11 11 11 10 10 10 10 9 9 9 9 9 9 9 9 9 9 9 9 9
19 14 15 15 16 16 18 18 19 19 19 19 19 20 20 19 19 19 19 19 18 17 17 16 15 14 13 12 11 11 11 10 10 10 10 10 10 10 10 10 9 9 9 9 9 9 9 9 9
18 14 15 15 16 16 18 18 19 19 18 18 19 19 19 19 18 18 19 19 19 18 18 16 15 14 13 12 11 11 11 10 10 10 10 10 10 10 10 10 10 9 9 9 9 9 9 9 9
17 15 15 16 18 18 17 18 18 17 15 18 19 19 18 18 18 18 18 18 19 18 18 17 16 14 13 13 12 11 11 10 10 10 10 10 10 10 10 10 10 10 9 9 9 9 9 9 9
15 15 16 17 18 17 17 17 17 17 18 19 18 18 18 18 18 18 18 18 18 18 17 17 16 15 14 13 12 12 11 11 11 11 10 10 10 10 10 10 10 9 9 9 9 9 9 8 8
15 15 17 17 17 17 16 16 16 17 19 18 18 18 18 18 19 18 18 17 17 17 17 17 16 15 14 13 12 12 11 11 11 10 10 10 10 10 10 10 9 9 9 9 9 8 8 8 8
16 16 16 16 16 15 15 15 15 18 18 18 18 18 18 18 18 18 18 18 18 17 17 16 16 15 14 13 13 12 12 11 10 10 10 10 10 9 9 9 9 9 9 8 8 8 8 8 8
15 14 14 15 16 16 15 15 14 18 18 18 18 17 17 18 18 18 18 18 18 17 17 16 15 15 14 13 13 12 11 11 10 10 10 9 9 9 9 9 9 9 8 8 8 8 8 8 8
15 14 14 15 15 15 16 15 15 17 17 17 17 17 17 17 17 18 18 18 18 17 17 16 15 15 14 13 12 12 11 11 10 10 9 9 9 9 8 8 8 8 8 7 7 7 7 7 7
14 14 15 14 15 15 15 15 14 16 16 15 16 16 16 17 17 18 18 18 18 18 17 16 15 15 14 13 12 11 11 10 10 9 9 9 9 8 8 8 8 8 7 7 7 7 7 7 7
15 15 14 14 14 14 14 13 13 15 14 14 15 16 16 17 17 17 18 18 18 17 17 16 15 14 13 13 12 11 11 10 10 10 10 9 9 8 8 8 8 7 7 7 7 7 7 6 6
15 14 13 13 13 13 13 12 12 13 13 14 14 15 16 16 16 17 17 17 17 17 16 15 15 14 13 13 12 12 11 11 11 10 10 9 9 9 8 8 8 7 7 7 7 6 6 6 6
13 13 13 12 13 13 12 11 12 12 13 13 14 14 15 16 16 17 16 16 16 16 15 15 14 14 13 13 12 11 11 11 10 10 10 10 9 9 8 8 8 7 7 7 6 6 6 6 5
13 13 13 13 13 12 12 13 13 13 13 13 14 14 15 15 15 16 16 15 15 15 15 14 14 13 13 12 11 11 11 11 10 10 10 9 9 9 8 8 8 7 7 6 6 6 5 5 5
13 13 13 13 13 11 12 12 13 13 13 13 13 14 14 14 15 15 15 15 14 14 14 14 13 13 12 12 11 11 11 10 10 10 9 9 9 8 8 8 7 7 6 6 6 6 5 5 4
13 14 13 13 12 11 11 11 11 12 13 13 13 13 14 14 14 14 14 14 13 13 13 13 13 12 12 11 11 11 11 10 10 10 9 9 9 8 8 7 7 7 6 6 6 5 5 5 4
13 12 11 9 9 11 12 11 12 11 12 12 12 13 13 14 14 13 13 13 13 13 12 12 12 12 11 11 11 10 10 10 10 9 9 9 9 8 8 7 7 6 6 6 6 5 5 4 4
13 12 12 13 11 12 11 10 11 12 11 11 12 13 13 13 13 13 13 12 12 12 12 11 11 11 11 11 10 10 10 9 9 9 8 8 8 8 8 7 7 6 6 6 5 5 4 4 3
13 12 13 13 12 11 11 10 11 11 10 11 13 14 13 13 13 13 12 12 11 11 11 11 11 10 10 10 10 9 9 8 8 8 8 7 7 7 7 7 6 6 6 5 5 5 4 4 3
12 11 11 10 11 10 10 10 10 11 10 10 11 12 13 13 12 12 11 11 11 11 10 10 10 10 9 9 9 8 8 8 7 7 7 7 7 6 6 6 6 6 6 5 5 4 4 4 3
12 10 9 10 11 11 11 10 11 12 11 10 10 12 13 12 12 11 11 11 10 10 10 10 9 9 8 8 8 7 7 7 6 6 6 6 6 6 6 6 5 5 5 5 4 4 4 3 3
11 11 10 9 9 10 11 11 11 11 11 10 10 12 12 12 11 11 10 10 10 10 9 9 8 8 7 7 7 6 6 6 6 6 6 6 5 5 5 5 5 5 5 4 4 4 3 3 3
11 11 9 11 10 8 8 10 11 10 10 10 11 11 11 11 11 10 10 10 9 9 9 8 8 7 7 6 6 6 6 5 5 5 5 5 5 5 5 4 4 4 4 3 3 3 2 2 2
Wind_Speed
4 2 2 4 6 5 2 5 3 3 4 3 2 4 6 7 7 5 2 10 7 12 25 25 25 23 21 19 17 16 14 13 12 11 10 10 10 9 9 10 10 10 10 11 11 11 12 12 13
1 1 5 5 5 1 5 5 5 6 3 1 1 2 2 6 5 4 2 9 10 18 25 23 25 24 22 20 18 17 15 14 13 11 10 10 9 9 9 9 9 9 9 10 10 10 11 11 12
1 3 5 5 4 5 4 4 5 4 1 0 1 1 3 5 4 4 5 10 12 18 24 22 26 24 22 21 19 18 16 15 13 12 11 10 10 9 9 9 8 8 8 8 9 9 9 10 10
3 5 6 5 2 5 5 6 5 4 0 1 1 5 5 3 2 1 6 11 12 15 22 22 26 24 23 21 20 18 17 16 14 13 12 11 10 9 9 8 8 8 7 7 7 8 8 8 9
4 5 5 2 4 5 5 6 3 4 2 1 3 4 6 1 3 4 9 12 14 13 20 21 26 24 23 21 20 19 18 16 15 14 13 12 11 10 9 8 8 7 7 6 6 6 6 6 7
5 5 4 3 6 6 6 4 2 3 3 2 4 3 7 1 3 5 9 10 9 11 18 19 25 24 23 22 21 20 18 17 16 15 14 13 11 10 10 9 8 7 6 6 5 5 5 5 5
5 5 4 4 4 6 5 2 4 3 4 5 6 5 7 2 2 6 8 8 8 12 15 16 20 23 23 22 21 20 19 18 17 16 15 14 13 11 11 9 8 7 6 5 4 4 3 3 3
5 5 2 2 4 7 4 2 3 5 7 3 8 7 8 2 5 8 8 7 8 8 11 14 15 19 21 22 22 21 20 19 18 17 16 14 13 13 12 11 9 8 7 6 5 4 3 2 1
4 4 3 5 6 6 4 3 3 1 3 3 6 7 3 4 7 8 6 5 7 10 9 12 12 15 18 20 21 21 21 20 19 18 17 15 13 12 10 11 10 10 8 7 6 5 4 3 1
5 3 8 6 6 5 4 4 4 4 5 6 7 6 3 5 8 10 10 13 14 16 13 10 11 12 16 18 18 18 19 19 19 17 16 15 13 12 9 10 12 11 10 9 9 8 6 4 3
4 7 6 6 6 5 5 5 4 4 8 10 10 9 4 7 8 11 12 12 16 14 14 14 11 13 14 14 15 14 15 16 16 16 15 14 13 12 10 9 10 8 7 6 5 3 3 4 4
3 6 5 5 3 3 5 4 4 7 12 6 6 5 4 9 13 15 16 14 10 10 14 13 12 11 13 14 14 13 13 13 13 15 16 15 12 11 11 10 10 8 6 6 6 5 5 5 7
4 5 4 5 7 6 6 8 6 9 10 6 5 4 7 10 12 12 11 9 9 11 12 12 11 11 11 11 12 13 13 13 15 16 17 18 14 11 11 11 12 11 10 9 9 8 8 8 9
3 5 8 8 6 3 4 4 3 8 4 5 6 7 7 9 11 9 10 11 12 13 12 11 12 12 12 10 9 11 13 14 15 16 18 20 18 15 13 12 12 13 14 13 12 12 10 10 10
3 6 9 4 2 2 2 7 5 6 6 8 9 9 9 8 6 9 10 12 12 10 10 12 12 11 11 10 11 12 14 15 14 16 19 20 20 18 16 13 12 16 17 15 13 11 10 8 9
3 4 5 6 4 3 2 7 5 4 6 7 9 9 10 9 7 7 7 8 8 8 9 11 12 12 11 10 10 11 13 14 14 16 18 20 21 20 17 13 13 17 17 15 10 7 5 6 7
3 2 4 8 4 3 1 9 8 5 5 5 7 8 9 10 11 10 7 4 4 7 8 10 11 11 11 9 9 10 11 13 14 16 17 19 20 21 19 15 16 17 14 12 10 7 6 8 9
3 4 4 6 5 4 5 10 12 8 3 2 4 7 8 10 11 10 9 6 2 3 6 8 9 8 8 6 5 5 6 7 12 14 17 18 19 20 20 16 15 15 9 8 8 9 8 7 8
2 4 7 8 5 4 6 9 11 7 2 3 4 6 8 9 9 10 10 9 7 4 2 4 6 7 7 5 5 5 7 6 5 11 16 18 20 20 19 16 13 13 11 13 12 9 9 9 5
3 4 7 7 2 2 6 8 6 3 2 2 3 6 8 9 12 13 11 10 8 5 2 1 4 6 7 6 4 3 3 4 5 8 14 19 20 20 19 16 11 11 10 11 11 10 6 6 7
5 6 6 5 6 3 5 6 3 3 3 3 4 4 6 7 9 10 11 10 9 8 5 2 1 4 5 6 4 2 1 1 2 5 7 13 18 19 20 19 16 11 11 13 14 14 12 10 8
6 6 5 3 2 5 4 3 5 2 2 1 1 4 5 6 7 7 9 9 9 8 5 4 3 1 3 5 5 6 6 6 7 5 6 7 14 18 20 19 17 13 11 14 14 14 13 12 11
7 2 3 1 3 2 1 2 7 2 5 7 4 1 2 4 6 7 7 7 7 7 7 6 5 4 2 3 5 6 7 8 6 4 6 7 8 13 17 18 15 13 12 14 14 13 14 13 14
5 5 5 5 4 2 3 4 6 5 8 6 6 4 2 2 4 5 6 6 7 7 7 7 6 5 2 1 3 5 8 8 8 8 7 7 6 6 11 14 13 13 12 14 15 14 14 15 15
4 4 4 5 4 4 1 3 8 6 5 7 9 8 5 2 2 4 6 7 8 8 8 7 7 6 4 2 2 4 7 7 8 9 8 7 6 6 9 9 10 11 12 13 12 13 15 16 16
5 7 5 3 4 5 3 6 7 5 5 5 7 8 6 3 1 1 3 5 5 7 7 7 6 5 5 4 4 3 4 4 5 7 7 7 7 8 8 8 9 11 12 13 12 13 15 14 16
6 4 5 6 2 3 7 7 8 1 4 5 7 7 6 3 1 1 3 4 4 5 5 5 6 5 6 5 5 5 5 4 6 7 6 6 7 7 8 8 9 10 11 13 13 12 14 14 15
4 8 6 5 3 4 7 6 5 5 4 4 6 6 4 2 1 2 2 3 3 3 4 5 5 5 5 6 5 5 6 6 6 6 7 8 8 8 8 9 9 10 11 11 12 12 14 15 16
5 4 5 5 4 5 4 7 6 7 7 8 7 4 3 2 1 1 1 2 3 4 4 5 5 5 6 6 6 7 7 7 6 6 8 8 8 8 9 9 9 10 10 10 11 13 13 15 16
6 8 8 5 5 5 4 8 4 4 5 6 5 2 2 2 2 1 1 2 4 5 6 6 6 6 7 6 7 7 8 7 8 8 9 8 9 9 9 9 10 11 11 10 11 13 13 14 16
Wind_Direction
343 5 66 56 53 49 278 259 244 245 239 242 179 167 174 182 181 232 283 157 156 156 172 182 176 176 175 175 173 169 166 163 159 154 147 140 132 125 117 109 100 94 89 84 80 78 76 76 76
353 80 56 61 85 57 278 259 252 237 248 345 84 112 193 247 226 243 219 176 161 161 171 181 176 177 177 177 176 173 171 169 166 162 155 149 144 137 128 119 110 104 96 90 86 82 80 79 79
137 51 81 76 117 183 251 261 259 264 232 179 239 242 229 242 229 239 203 167 155 163 172 180 177 178 179 180 179 177 175 174 171 169 165 161 155 149 139 131 123 115 107 99 92 87 84 83 83
96 51 57 78 200 221 234 271 285 278 282 184 191 285 270 247 251 241 154 158 155 164 173 181 178 180 182 182 182 181 179 178 177 175 172 170 166 159 152 144 136 128 120 111 100 92 87 86 87
61 77 62 21 268 261 256 272 261 220 230 250 173 262 274 254 60 120 149 162 163 164 173 183 181 182 184 185 185 184 184 183 182 181 180 178 175 169 163 158 151 145 136 125 113 102 92 87 89
57 68 87 265 271 279 274 262 187 193 246 250 191 241 262 164 124 152 158 162 163 162 172 183 184 185 187 188 188 188 188 189 188 187 187 186 183 179 175 173 168 163 154 144 132 118 104 93 89
102 104 172 226 274 291 274 181 183 203 250 240 190 210 272 286 139 145 148 145 153 165 172 184 190 188 190 191 192 192 193 193 193 193 193 192 191 189 187 186 183 181 175 167 156 142 125 108 94
117 105 158 246 261 276 272 257 232 208 246 224 165 199 250 332 107 114 118 133 153 169 180 187 193 189 190 192 195 195 196 197 198 198 197 197 197 198 198 195 195 196 195 191 188 181 170 151 126
87 85 232 234 226 259 263 273 276 249 252 249 216 224 255 109 120 117 124 152 174 187 194 193 195 191 188 190 196 198 199 201 201 201 200 200 198 198 202 194 203 208 209 210 212 213 213 211 235
93 171 231 221 207 232 266 253 268 289 281 274 271 258 133 148 161 168 179 187 192 197 197 196 196 191 186 188 194 197 198 200 201 200 200 196 189 190 195 196 208 218 221 224 226 228 230 218 212
158 201 233 242 227 239 267 259 228 223 264 249 256 269 193 185 199 205 204 200 202 198 196 198 195 191 186 186 188 191 191 194 196 195 193 184 181 185 190 196 209 225 234 231 240 250 197 189 210
199 241 233 257 237 227 237 252 245 216 240 258 256 264 204 209 214 215 216 215 202 196 201 198 193 191 191 187 185 186 186 188 188 190 188 179 175 180 185 192 201 211 216 216 219 222 225 227 233
232 267 264 256 272 255 253 248 256 259 271 307 309 289 250 235 232 231 230 224 204 206 201 197 192 193 191 188 187 187 189 190 190 189 190 187 182 184 191 199 206 212 216 217 220 226 234 241 246
274 287 294 284 271 250 247 272 223 277 334 355 356 332 301 265 249 244 237 230 214 210 201 193 195 194 190 193 193 192 191 191 190 192 194 195 193 192 194 201 209 215 218 222 224 228 232 241 248
319 319 318 296 303 286 272 314 238 279 342 352 350 339 332 322 288 256 245 235 223 212 196 192 196 192 193 197 196 193 191 191 194 197 199 200 200 199 199 203 211 218 221 222 225 231 236 246 248
41 11 320 305 337 330 350 293 274 349 1 346 345 344 343 339 335 305 277 250 225 204 190 191 197 195 198 199 197 194 192 195 200 201 202 205 206 205 203 209 218 219 216 215 215 217 223 236 240
19 333 289 303 332 351 339 269 277 344 342 338 347 350 352 354 360 352 339 302 225 196 185 184 192 192 195 193 194 196 195 202 205 204 206 209 210 209 208 217 222 215 210 213 220 214 212 231 239
251 265 277 279 306 334 274 271 294 321 305 337 3 6 5 13 2 352 6 16 52 158 176 182 190 187 177 174 180 191 206 212 211 211 215 213 214 213 215 223 222 209 207 216 218 225 217 225 237
204 239 267 267 285 299 274 285 299 318 45 85 46 23 17 12 358 16 27 33 45 59 130 180 183 179 164 166 181 199 222 219 220 222 222 218 218 216 217 227 221 211 218 225 220 219 225 232 213
210 256 272 288 301 287 301 298 305 1 56 88 69 39 27 17 14 17 25 32 35 33 33 168 187 182 182 182 172 182 193 215 220 225 227 225 223 221 223 226 228 218 224 228 221 212 215 223 191
222 217 241 270 326 12 336 339 358 14 36 56 47 41 38 33 24 17 20 24 27 25 12 13 195 187 187 172 146 124 105 330 253 232 233 230 227 227 227 228 228 225 221 230 227 219 217 230 214
251 232 211 235 331 307 18 306 271 274 299 286 34 37 39 31 31 31 26 23 22 14 16 30 46 118 165 165 174 192 210 233 238 231 234 234 227 229 230 232 230 229 227 231 232 224 222 224 230
212 110 150 186 180 306 334 203 281 252 224 229 216 149 59 47 46 42 32 27 25 21 28 33 49 61 106 171 194 207 232 246 259 257 253 247 235 232 233 233 232 233 233 234 234 229 222 222 230
134 87 69 62 82 311 222 177 275 225 213 208 203 194 166 94 58 45 35 35 28 25 29 31 42 42 43 157 210 223 242 258 272 273 268 264 253 242 236 235 235 237 237 237 237 235 229 229 230
115 90 10 350 6 264 244 203 251 251 235 206 191 188 186 161 85 42 37 31 22 18 18 21 30 24 14 2 280 251 252 258 261 269 271 273 271 261 250 237 237 240 240 241 239 236 235 233 232
172 145 162 229 258 289 299 237 254 280 290 225 175 163 169 168 136 57 44 38 20 13 14 14 15 7 359 354 327 297 272 261 264 266 266 266 265 266 263 248 242 242 242 243 240 239 239 238 236
138 164 155 133 166 271 284 290 304 40 50 104 135 150 175 186 170 73 40 33 15 5 1 357 357 352 347 342 333 326 315 292 283 283 274 270 268 273 272 264 256 252 248 246 243 243 241 239 238
146 140 110 130 181 270 292 280 255 241 190 168 171 184 200 192 123 61 37 15 356 349 342 347 348 335 327 331 327 321 317 308 298 295 292 286 283 280 281 277 269 263 257 252 247 248 247 244 242
130 136 128 126 159 177 267 274 228 215 199 191 200 206 203 186 149 69 12 355 347 346 345 340 335 329 324 323 322 321 315 311 306 297 291 289 286 285 281 278 274 270 265 259 254 252 250 248 248
174 175 153 164 211 186 200 267 282 217 197 180 190 189 152 139 124 99 16 353 350 343 335 331 326 321 315 314 315 312 308 309 306 300 295 291 287 284 279 278 276 274 270 264 259 261 258 252 252
Height
1535 1536 1538 1540 1544 1556 1555 1549 1544 1542 1541 1540 1540 1540 1541 1542 1545 1547 1539 1538 1538 1540 1541 1543 1545 1548 1550 1552 1554 1556 1557 1559 1560 1561 1562 1562 1563 1563 1564 1564 1564 1564 1564 1564 1564 1564 1563 1563 1563
1535 1536 1539 1540 1552 1563 1558 1547 1544 1541 1540 1539 1539 1539 1539 1538 1538 1537 1537 1537 1538 1539 1541 1543 1545 1547 1550 1552 1554 1556 1557 1559 1560 1561 1562 1563 1563 1564 1564 1564 1565 1565 1565 1565 1564 1564 1564 1564 1564
1535 1537 1539 1543 1554 1559 1552 1543 1541 1539 1538 1539 1539 1539 1539 1537 1536 1536 1536 1536 1537 1539 1540 1542 1544 1547 1549 1552 1554 1556 1557 1559 1560 1561 1562 1563 1563 1564 1564 1565 1565 1565 1565 1565 1565 1565 1565 1565 1565
1536 1538 1540 1548 1551 1549 1545 1540 1539 1538 1538 1538 1539 1538 1537 1536 1535 1535 1535 1536 1537 1538 1540 1542 1544 1546 1549 1551 1553 1555 1557 1559 1560 1561 1562 1563 1564 1564 1565 1565 1565 1565 1565 1565 1566 1566 1566 1566 1566
1537 1538 1545 1553 1549 1545 1541 1539 1537 1537 1537 1538 1538 1537 1536 1535 1534 1534 1534 1535 1536 1537 1539 1541 1543 1545 1548 1550 1553 1555 1557 1558 1560 1561 1562 1563 1564 1564 1565 1565 1565 1565 1566 1566 1566 1566 1566 1567 1567
1537 1539 1553 1556 1550 1544 1540 1538 1537 1536 1537 1537 1537 1536 1534 1533 1532 1532 1533 1534 1535 1536 1538 1540 1542 1544 1547 1549 1551 1554 1556 1558 1559 1561 1562 1563 1564 1564 1565 1565 1565 1566 1566 1566 1566 1567 1567 1567 1567
1538 1544 1550 1549 1549 1544 1538 1536 1536 1536 1535 1535 1535 1534 1531 1531 1531 1530 1531 1532 1533 1535 1536 1538 1540 1542 1545 1547 1550 1552 1554 1556 1558 1560 1561 1562 1563 1564 1564 1565 1565 1566 1566 1566 1567 1567 1567 1567 1567
1538 1542 1547 1549 1548 1544 1537 1535 1535 1534 1534 1534 1533 1532 1529 1529 1529 1529 1529 1530 1531 1532 1534 1536 1538 1540 1543 1545 1548 1550 1553 1555 1557 1559 1560 1561 1562 1563 1564 1565 1565 1566 1566 1566 1566 1567 1567 1567 1567
1538 1546 1550 1547 1545 1540 1535 1534 1534 1533 1532 1531 1530 1529 1527 1526 1526 1526 1526 1527 1528 1529 1531 1533 1535 1537 1540 1543 1545 1548 1550 1553 1555 1557 1558 1560 1561 1562 1563 1564 1565 1565 1566 1566 1566 1566 1566 1567 1567
1537 1547 1544 1539 1537 1535 1533 1533 1532 1531 1530 1528 1527 1526 1524 1523 1522 1522 1523 1523 1525 1526 1528 1530 1532 1535 1537 1540 1543 1545 1548 1550 1552 1554 1556 1558 1559 1561 1562 1563 1564 1564 1565 1565 1565 1566 1566 1566 1566
1536 1539 1536 1534 1533 1533 1532 1530 1529 1529 1527 1524 1523 1522 1520 1519 1518 1518 1519 1520 1522 1524 1525 1527 1529 1532 1534 1537 1539 1542 1545 1547 1550 1552 1554 1555 1557 1559 1560 1561 1562 1563 1563 1564 1564 1564 1564 1565 1565
1536 1533 1533 1531 1531 1530 1529 1528 1527 1525 1522 1522 1520 1519 1517 1516 1515 1514 1515 1516 1518 1520 1522 1525 1527 1529 1531 1534 1537 1539 1542 1544 1546 1549 1551 1553 1555 1556 1558 1559 1560 1561 1562 1562 1563 1563 1563 1563 1563
1534 1532 1530 1529 1528 1527 1526 1525 1524 1519 1518 1519 1517 1516 1514 1512 1511 1511 1511 1513 1514 1516 1519 1522 1524 1526 1529 1531 1534 1536 1538 1541 1544 1546 1548 1550 1552 1554 1555 1557 1558 1559 1559 1560 1560 1560 1560 1560 1559
1532 1531 1529 1526 1525 1524 1523 1522 1522 1516 1517 1516 1515 1513 1511 1508 1507 1506 1507 1508 1510 1512 1515 1519 1521 1524 1526 1528 1530 1533 1536 1538 1541 1543 1545 1547 1549 1551 1552 1553 1554 1555 1556 1556 1557 1556 1556 1556 1555
1531 1531 1527 1524 1523 1523 1523 1522 1519 1516 1516 1514 1513 1511 1509 1506 1504 1503 1503 1504 1506 1508 1511 1514 1517 1520 1523 1525 1527 1530 1532 1535 1537 1539 1542 1543 1545 1547 1548 1549 1550 1551 1552 1552 1552 1552 1551 1551 1550
1531 1534 1534 1525 1523 1522 1525 1526 1517 1516 1515 1513 1512 1510 1508 1506 1504 1502 1502 1502 1503 1505 1507 1510 1513 1516 1519 1521 1524 1527 1529 1531 1533 1536 1538 1539 1541 1542 1543 1544 1545 1546 1547 1547 1546 1546 1545 1545 1544
1537 1540 1535 1530 1524 1523 1524 1523 1515 1515 1514 1513 1512 1511 1509 1507 1505 1503 1502 1501 1501 1503 1504 1507 1510 1512 1515 1518 1521 1523 1525 1527 1529 1531 1533 1534 1536 1537 1538 1538 1539 1540 1540 1540 1540 1540 1539 1538 1538
1537 1536 1535 1533 1525 1524 1525 1522 1514 1513 1512 1512 1512 1511 1510 1508 1507 1505 1504 1503 1503 1503 1504 1505 1507 1510 1512 1515 1517 1519 1521 1523 1525 1526 1528 1529 1530 1531 1532 1532 1532 1533 1533 1533 1533 1533 1532 1532 1531
1532 1534 1536 1532 1526 1525 1524 1522 1516 1512 1511 1512 1513 1512 1511 1510 1510 1508 1507 1506 1505 1505 1505 1505 1507 1508 1510 1512 1514 1516 1517 1519 1520 1521 1523 1524 1524 1525 1525 1525 1525 1525 1525 1525 1525 1525 1524 1523 1524
1532 1535 1535 1530 1526 1526 1525 1522 1516 1513 1513 1513 1514 1513 1513 1512 1511 1510 1510 1508 1507 1507 1506 1506 1507 1508 1509 1511 1512 1513 1515 1515 1516 1517 1517 1518 1518 1518 1518 1518 1517 1517 1516 1516 1516 1516 1515 1514 1516
1531 1533 1531 1529 1527 1526 1526 1521 1517 1515 1514 1515 1515 1514 1514 1513 1513 1513 1512 1511 1510 1509 1509 1508 1508 1508 1509 1510 1511 1511 1512 1512 1512 1512 1512 1512 1512 1511 1511 1510 1509 1509 1508 1507 1507 1507 1506 1505 1505
1531 1525 1526 1527 1531 1535 1531 1534 1521 1517 1516 1515 1515 1515 1515 1515 1515 1515 1514 1514 1513 1512 1511 1510 1510 1509 1509 1510 1510 1510 1509 1509 1509 1508 1507 1507 1506 1505 1504 1503 1501 1500 1499 1497 1497 1497 1495 1495 1494
1523 1522 1524 1527 1530 1536 1534 1536 1527 1518 1517 1516 1515 1515 1515 1516 1516 1516 1516 1516 1515 1514 1513 1512 1511 1511 1510 1510 1509 1509 1508 1506 1505 1504 1502 1501 1500 1498 1497 1495 1494 1492 1490 1488 1488 1487 1485 1484 1483
1520 1525 1529 1535 1538 1538 1530 1536 1526 1520 1514 1513 1513 1514 1515 1516 1517 1517 1517 1517 1516 1516 1515 1513 1513 1512 1511 1510 1509 1507 1506 1504 1502 1500 1498 1496 1494 1492 1491 1488 1486 1484 1482 1480 1479 1477 1476 1474 1472
1520 1529 1537 1533 1539 1536 1530 1533 1525 1510 1509 1509 1510 1512 1514 1515 1516 1517 1517 1517 1517 1516 1515 1514 1513 1511 1510 1509 1507 1505 1503 1500 1498 1496 1493 1491 1489 1487 1485 1482 1480 1477 1475 1473 1471 1468 1466 1465 1462
1520 1525 1536 1538 1540 1539 1531 1531 1516 1508 1506 1504 1507 1510 1513 1515 1516 1516 1517 1517 1516 1515 1515 1513 1512 1510 1509 1507 1504 1502 1499 1497 1494 1491 1489 1486 1483 1481 1479 1476 1473 1470 1467 1465 1462 1459 1457 1455 1452
1521 1524 1526 1537 1539 1542 1535 1526 1513 1506 1505 1505 1506 1509 1511 1513 1514 1515 1515 1515 1515 1515 1514 1512 1510 1508 1506 1504 1501 1498 1496 1493 1490 1487 1484 1481 1478 1475 1472 1469 1466 1463 1460 1457 1453 1449 1447 1444 1441
1515 1522 1531 1536 1538 1539 1534 1528 1519 1507 1506 1507 1507 1508 1510 1511 1512 1513 1514 1514 1514 1513 1512 1510 1508 1506 1503 1500 1498 1495 1492 1489 1486 1482 1479 1476 1473 1469 1466 1462 1458 1455 1452 1448 1444 1440 1437 1434 1430
1519 1521 1525 1534 1536 1540 1538 1525 1507 1504 1503 1505 1505 1506 1508 1509 1510 1511 1512 1512 1511 1511 1509 1507 1505 1502 1500 1497 1494 1491 1487 1484 1481 1477 1474 1470 1466 1462 1458 1454 1450 1446 1442 1439 1434 1430 1426 1422 1419
1512 1515 1522 1528 1531 1538 1539 1524 1500 1500 1500 1502 1504 1505 1506 1507 1509 1509 1510 1510 1509 1508 1506 1504 1501 1498 1495 1492 1489 1486 1482 1479 1475 1471 1467 1463 1459 1454 1450 1445 1440 1436 1432 1428 1424 1419 1415 1411 1407